Precipitable_Water
0.82 0.87 0.90 0.91 0.96 0.97 1.00 1.03 1.05 1.05 1.05 1.10 1.13 1.16 1.19 1.16 1.11 1.01 0.93 0.92 0.93 0.90 0.90 0.98 1.04 1.13 1.20 1.23 1.22 1.22 1.20 1.18 1.16
0.78 0.83 0.87 0.89 0.94 0.95 0.97 1.03 1.06 1.12 1.14 1.18 1.21 1.22 1.18 1.21 1.11 1.04 0.96 0.99 0.99 0.95 0.90 0.90 0.98 1.08 1.12 1.16 1.17 1.16 1.12 1.09 1.04
0.87 0.86 0.91 0.96 0.99 1.01 1.01 1.00 1.04 1.05 1.13 1.16 1.17 1.15 1.12 1.15 1.08 1.08 1.03 1.04 1.04 0.99 0.95 0.91 0.90 1.00 1.06 1.06 1.06 1.06 1.04 1.00 0.94
1.03 0.97 0.93 0.98 0.99 1.01 1.02 1.02 0.99 1.00 1.02 1.07 1.10 1.09 1.09 1.07 1.09 1.12 1.09 1.08 1.08 1.05 1.02 0.97 0.92 0.89 0.88 0.90 0.92 0.95 0.97 0.95 0.91
1.13 1.07 1.04 1.00 0.97 0.97 0.99 0.99 0.98 0.98 0.98 0.96 0.95 0.98 1.09 1.11 1.14 1.14 1.14 1.09 1.09 1.06 1.04 1.01 0.97 0.94 0.91 0.90 0.88 0.89 0.90 0.91 0.90
1.17 1.14 1.09 1.06 1.05 1.03 0.99 0.95 0.92 0.92 0.95 0.94 0.92 1.02 1.07 1.09 1.14 1.17 1.17 1.14 1.09 1.09 1.08 1.03 0.99 0.96 0.95 0.95 0.94 0.92 0.93 0.92 0.91
1.19 1.16 1.13 1.10 1.06 1.05 1.02 1.00 0.96 0.93 1.00 1.01 0.99 1.00 1.01 1.04 1.11 1.16 1.16 1.15 1.11 1.11 1.11 1.11 1.07 1.01 0.97 0.97 0.98 0.96 0.95 0.94 0.93
1.19 1.11 1.05 1.03 1.01 0.99 1.06 1.05 1.06 1.03 1.01 0.98 0.97 0.97 0.98 0.98 1.03 1.11 1.13 1.14 1.12 1.12 1.19 1.19 1.16 1.11 1.06 1.01 0.98 0.98 0.99 1.00 0.96
1.13 1.03 1.03 1.01 1.03 1.00 1.05 1.02 1.06 1.07 1.06 1.02 0.98 0.95 0.97 0.98 0.97 1.04 1.09 1.11 1.13 1.14 1.17 1.24 1.27 1.23 1.16 1.10 1.07 1.06 1.05 1.05 1.03
1.10 1.07 1.05 1.02 1.02 1.01 0.98 0.99 0.99 0.99 1.01 1.02 1.01 0.96 0.98 0.97 0.98 1.02 1.09 1.11 1.14 1.15 1.18 1.21 1.28 1.29 1.24 1.16 1.13 1.12 1.14 1.12 1.11
1.08 1.02 0.97 0.97 0.97 0.94 0.95 0.99 1.04 1.05 1.04 1.00 0.98 0.95 0.98 1.00 1.04 1.09 1.14 1.19 1.19 1.20 1.21 1.22 1.25 1.25 1.21 1.22 1.24 1.21 1.21 1.17 1.17
1.13 1.08 1.04 1.07 1.05 1.05 1.06 1.09 1.12 1.11 1.12 1.08 1.11 1.13 1.13 1.13 1.15 1.17 1.20 1.22 1.23 1.24 1.24 1.22 1.16 1.10 1.12 1.23 1.31 1.37 1.34 1.24 1.21
1.15 1.11 1.15 1.17 1.16 1.13 1.11 1.11 1.09 1.10 1.11 1.12 1.15 1.19 1.21 1.23 1.23 1.24 1.28 1.24 1.27 1.24 1.22 1.23 1.17 1.18 1.15 1.15 1.19 1.27 1.38 1.44 1.44
1.25 1.22 1.22 1.26 1.25 1.22 1.21 1.19 1.18 1.13 1.16 1.18 1.21 1.23 1.22 1.23 1.23 1.20 1.19 1.24 1.25 1.17 1.22 1.22 1.14 1.15 1.11 1.10 1.10 1.12 1.19 1.27 1.30
1.32 1.32 1.32 1.34 1.28 1.26 1.26 1.22 1.22 1.18 1.17 1.16 1.15 1.18 1.20 1.20 1.12 1.08 1.16 1.18 1.16 1.16 1.17 1.19 1.11 1.08 1.04 1.04 1.08 1.10 1.09 1.12 1.16
1.38 1.38 1.34 1.36 1.28 1.27 1.27 1.23 1.16 1.12 1.17 1.13 1.00 0.99 1.02 0.99 0.97 1.01 1.11 1.16 1.15 1.12 1.08 1.07 1.06 0.99 0.99 1.01 1.04 1.01 0.96 0.97 0.99
1.42 1.36 1.34 1.30 1.26 1.22 1.21 1.18 1.08 1.07 1.08 0.93 0.93 0.77 0.80 0.89 0.93 0.95 1.00 1.05 1.11 1.10 1.07 0.99 0.97 0.99 1.00 0.99 0.95 0.88 0.87 0.86 0.91
1.35 1.33 1.28 1.24 1.20 1.13 1.12 1.10 1.03 0.92 0.97 1.03 0.93 0.76 0.67 0.80 0.91 0.94 1.00 1.03 1.02 1.02 0.98 0.97 0.95 0.98 0.96 0.94 0.90 0.82 0.75 0.76 0.78
1.34 1.25 1.21 1.13 1.08 1.00 0.97 0.98 0.94 0.94 0.80 0.88 0.96 1.00 0.96 0.77 0.69 0.85 0.91 0.99 0.96 0.95 0.97 0.97 0.97 0.95 0.91 0.92 0.87 0.80 0.76 0.77 0.77
1.06 0.99 0.93 0.89 0.90 0.89 0.88 0.85 0.82 0.85 0.80 0.79 0.80 0.80 0.82 0.85 0.78 0.67 0.72 0.91 0.95 1.00 0.99 0.99 0.93 0.92 0.88 0.83 0.77 0.77 0.75 0.77 0.76
Wind_Speed
9 9 9 9 9 9 9 9 9 9 9 9 9 10 10 10 11 12 12 13 13 13 13 14 14 14 13 13 12 13 13 14 15
9 9 9 9 9 9 9 9 9 8 8 8 8 9 9 9 10 11 12 12 13 13 14 14 14 13 13 13 13 14 14 15 15
9 8 8 8 8 8 8 7 7 7 6 6 7 8 9 8 10 11 12 12 13 13 14 14 14 14 14 14 14 14 15 16 16
7 7 6 6 5 5 5 5 5 5 5 5 6 7 8 9 9 10 12 13 13 14 14 15 15 15 15 15 15 15 16 16 17
5 5 4 3 2 2 2 3 3 4 5 5 7 7 9 10 10 11 12 13 14 14 15 15 16 15 16 15 16 16 17 17 16
3 3 2 1 1 2 2 3 4 5 6 7 8 8 10 11 11 12 13 14 15 15 16 16 16 16 16 17 17 17 17 17 16
3 3 3 3 4 4 5 5 6 6 7 8 9 9 11 12 12 13 14 15 16 16 16 17 17 17 17 18 18 18 18 17 17
6 5 6 6 6 7 7 7 7 8 9 9 10 11 12 13 13 14 15 16 17 17 18 18 18 18 18 18 19 18 18 18 17
8 8 7 7 8 8 8 8 9 10 10 11 11 12 13 14 14 15 16 18 18 19 19 19 19 19 20 20 20 19 19 18 18
10 10 9 9 9 9 10 10 11 11 12 12 13 14 14 15 17 18 18 20 20 21 21 21 21 21 21 21 21 20 20 19 19
12 11 10 10 10 10 11 11 12 12 13 13 14 15 17 18 19 20 21 22 22 22 22 23 22 23 23 23 22 22 21 21 20
13 12 12 12 12 12 12 13 13 14 15 15 16 17 18 19 21 22 23 24 24 24 24 24 24 24 24 23 23 23 22 22 22
15 14 14 14 14 14 14 15 15 16 17 17 18 19 20 21 23 25 26 26 25 25 25 24 24 24 23 23 23 24 23 23 22
16 16 16 16 16 16 17 17 17 18 19 20 20 21 22 24 25 26 27 26 26 26 25 24 23 24 23 24 24 23 23 24 24
18 18 18 18 18 18 19 20 20 21 22 23 23 25 26 27 27 27 26 26 26 24 21 21 22 23 24 24 24 24 23 23 23
21 20 20 20 20 21 21 22 22 23 24 25 26 26 27 28 28 27 26 25 22 21 21 22 23 24 24 24 24 24 24 23 23
21 21 22 22 23 23 24 24 25 26 26 26 27 27 26 27 26 25 23 22 22 22 22 23 24 24 24 24 24 24 24 24 23
23 24 24 25 26 26 26 27 27 28 28 28 28 27 26 25 25 24 23 22 24 24 24 24 23 24 24 25 25 25 25 24 23
25 26 27 27 27 28 28 28 29 29 29 29 30 30 30 28 27 25 25 25 24 24 24 23 23 25 25 26 26 25 24 23 23
24 25 27 27 28 29 29 30 30 30 30 30 29 30 30 29 28 28 26 25 25 23 23 23 25 26 26 26 25 24 23 23 22
Wind_Direction
111 108 106 101 96 92 89 86 83 79 78 70 61 53 44 42 39 33 29 26 22 19 16 14 12 13 11 8 4 359 356 354 351
111 110 107 103 98 93 88 84 80 75 73 65 54 42 33 37 30 24 20 16 14 11 9 7 5 3 2 0 357 353 351 348 346
113 111 109 105 100 93 85 78 73 66 62 52 40 30 27 20 16 13 10 7 5 2 1 360 357 354 351 349 347 345 344 342 342
119 116 113 109 101 91 79 66 56 47 37 24 13 10 8 4 1 359 359 357 355 353 352 351 349 348 346 343 341 339 338 338 338
131 128 123 118 105 79 46 26 12 4 358 353 349 347 348 348 346 346 346 347 345 344 344 343 343 342 341 339 337 336 335 334 334
163 165 170 193 267 306 317 321 324 326 329 333 333 333 335 336 334 335 336 338 338 336 337 337 337 336 335 334 333 332 331 330 330
206 224 248 264 276 286 296 301 305 309 313 317 322 323 325 329 328 327 329 331 332 331 330 331 331 331 330 330 329 328 327 326 325
237 254 263 270 276 281 289 295 300 303 307 309 310 315 318 321 322 320 323 325 326 326 324 324 325 326 325 325 325 325 324 322 321
251 258 265 271 275 280 284 290 294 297 303 305 308 311 313 316 316 317 318 320 320 320 319 318 318 320 320 320 320 319 319 318 317
252 259 264 270 276 280 283 287 293 295 298 302 303 306 309 310 311 313 313 315 315 316 315 314 312 313 314 315 315 315 314 313 313
254 258 264 270 275 280 283 286 291 295 298 300 302 303 304 306 308 309 309 310 311 311 312 311 310 310 310 309 308 308 308 309 308
252 258 265 270 274 280 283 287 290 292 295 297 299 301 302 304 306 307 307 306 307 306 308 309 309 310 309 307 306 304 301 302 302
252 259 265 269 274 278 282 286 289 291 293 296 298 300 301 301 304 306 306 305 305 304 303 305 307 310 310 308 306 303 299 296 296
252 259 265 269 274 277 281 285 287 289 291 294 296 298 299 301 302 303 304 304 304 303 301 300 304 307 308 309 309 306 302 297 294
254 260 265 270 274 277 280 283 285 288 290 292 294 297 298 299 300 301 302 302 305 305 304 303 306 308 309 309 307 306 303 300 296
255 262 266 270 273 276 279 282 285 287 291 293 295 296 298 299 300 300 299 300 302 304 305 306 306 308 310 310 309 307 305 302 298
258 262 267 271 275 278 279 281 284 286 289 291 294 297 299 299 301 302 300 298 299 301 303 305 306 306 308 309 310 308 305 302 299
261 264 268 273 276 278 280 282 283 286 288 289 290 295 296 299 299 301 299 297 297 298 300 302 304 306 307 307 308 306 305 302 300
264 266 271 274 277 279 280 282 283 285 287 289 288 288 290 294 297 296 296 296 296 297 297 301 303 305 307 306 307 305 304 301 300
268 271 273 276 278 280 281 282 283 284 286 287 288 288 289 288 289 293 294 294 295 294 296 298 303 305 306 307 306 305 304 302 300